GW2946 Weather Reports


time (UTC)temp
C
wind
direction
speed
KPH
gust
KPH
rain 1hr
cm
rain 24hr
cm
rain mn
cm
humidity
%
barometer
mb
20260510231008 18 56 9.7 12.9 0.00 0.00 0.00 47 1017.8
20260510230502 17 17 9.7 11.3 0.00 0.00 0.00 48 1017.9
20260510225959 18 353 6.4 9.7 0.00 0.00 0.00 48 1017.9
20260510225456 18 56 4.8 6.4 0.00 0.00 0.00 46 1017.8
20260510224951 18 352 11.3 12.9 0.00 0.00 0.00 46 1017.6
20260510224447 18 357 9.7 11.3 0.00 0.00 0.00 47 1017.8
20260510223944 18 16 8.0 16.1 0.00 0.00 0.00 47 1017.6
20260510223442 18 357 11.3 12.9 0.00 0.00 0.00 47 1017.7
20260510222938 18 353 8.0 9.7 0.00 0.00 0.00 47 1017.9
20260510222436 18 350 14.5 16.1 0.00 0.00 0.00 44 1017.9
20260510221932 18 3 8.0 14.5 0.00 0.00 0.00 46 1017.7
20260510221428 18 340 4.8 6.4 0.00 0.00 0.00 48 1017.5
20260510220925 18 352 16.1 16.1 0.00 0.00 0.00 46 1017.7
20260510220421 18 353 11.3 12.9 0.00 0.00 0.00 44 1017.6
20260510215917 19 335 14.5 17.7 0.00 0.00 0.00 46 1017.5
20260510215415 18 344 12.9 14.5 0.00 0.00 0.00 46 1017.7
20260510214913 18 0 14.5 16.1 0.00 0.00 0.00 46 1017.5
20260510214409 20 348 19.3 24.1 0.00 0.00 0.00 47 1017.1
20260510213906 19 11 9.7 11.3 0.00 0.00 0.00 45 1017.0
20260510213403 19 345 9.7 11.3 0.00 0.00 0.00 44 1017.0
20260510212859 19 314 9.7 11.3 0.00 0.00 0.00 43 1017.1
20260510212355 19 265 8.0 9.7 0.00 0.00 0.00 45 1016.8
20260510211847 19 348 11.3 12.9 0.00 0.00 0.00 46 1016.9
20260510211344 19 5 9.7 12.9 0.00 0.00 0.00 44 1017.1
20260510210839 19 331 12.9 14.5 0.00 0.00 0.00 48 1016.8
20260510210334 19 340 3.2 3.2 0.00 0.00 0.00 43 1017.0
20260510205828 19 315 9.7 11.3 0.00 0.00 0.00 45 1016.9
20260510205323 19 336 12.9 14.5 0.00 0.00 0.00 47 1017.1
20260510204820 19 0 14.5 14.5 0.00 0.00 0.00 46 1017.0
20260510204316 19 337 8.0 9.7 0.00 0.00 0.00 46 1017.0
20260510203813 19 317 11.3 12.9 0.00 0.00 0.00 44 1017.0
20260510203311 20 334 8.0 11.3 0.00 0.00 0.00 42 1016.9
20260510202810 20 270 0.0 0.0 0.00 0.00 0.00 40 1017.0
20260510202307 18 301 8.0 11.3 0.00 0.00 0.00 44 1017.2
20260510201803 18 345 6.4 6.4 0.00 0.00 0.00 46 1017.1
20260510201300 19 275 3.2 3.2 0.00 0.00 0.00 42 1017.1
20260510200757 19 336 11.3 12.9 0.00 0.00 0.00 44 1017.0
20260510200255 19 336 19.3 22.5 0.00 0.00 0.00 45 1017.0
20260510195751 20 356 6.4 9.7 0.00 0.00 0.00 47 1017.1
20260510195247 19 233 3.2 4.8 0.00 0.00 0.00 43 1017.0
20260510194746 20 214 1.6 3.2 0.00 0.00 0.00 52 1017.1
20260510194244 18 325 3.2 3.2 0.00 0.00 0.00 46 1017.2
20260510193740 18 334 9.7 11.3 0.00 0.00 0.00 46 1016.9
20260510193234 18 354 12.9 14.5 0.00 0.00 0.00 49 1017.1
20260510192730 19 355 19.3 24.1 0.00 0.00 0.00 53 1017.0
20260510192226 20 331 14.5 16.1 0.00 0.00 0.00 50 1017.0
20260510191722 19 273 6.4 6.4 0.00 0.00 0.00 46 1017.0
20260510191219 19 343 6.4 6.4 0.00 0.00 0.00 49 1017.0
20260510190716 20 359 9.7 12.9 0.00 0.00 0.00 50 1017.1
20260510190213 19 244 3.2 4.8 0.00 0.00 0.00 46 1017.1
20260510185710 18 275 6.4 9.7 0.00 0.00 0.00 44 1017.1
20260510185208 20 321 6.4 9.7 0.00 0.00 0.00 45 1017.4
20260510184704 18 354 8.0 9.7 0.00 0.00 0.00 46 1017.2
20260510184201 19 356 4.8 6.4 0.00 0.00 0.00 51 1017.4
20260510183656 20 359 1.6 1.6 0.00 0.00 0.00 51 1017.1
20260510183151 19 50 6.4 6.4 0.00 0.00 0.00 43 1017.2
20260510182648 18 339 3.2 4.8 0.00 0.00 0.00 46 1017.2
20260510182143 19 355 6.4 6.4 0.00 0.00 0.00 46 1017.1
20260510181641 19 85 3.2 3.2 0.00 0.00 0.00 49 1017.2
20260510181137 19 324 8.0 11.3 0.00 0.00 0.00 46 1017.3
20260510180633 18 49 3.2 3.2 0.00 0.00 0.00 49 1017.4
20260510180131 18 14 6.4 6.4 0.00 0.00 0.00 48 1017.4
20260510175627 18 38 1.6 3.2 0.00 0.00 0.00 49 1017.1
20260510175122 17 233 4.8 6.4 0.00 0.00 0.00 47 1016.8
20260510174620 18 339 4.8 4.8 0.00 0.00 0.00 48 1017.0
20260510174118 18 2 8.0 9.7 0.00 0.00 0.00 56 1016.9
20260510173613 18 51 3.2 4.8 0.00 0.00 0.00 51 1017.0
20260510173110 18 57 8.0 11.3 0.00 0.00 0.00 54 1016.9
20260510172605 18 49 6.4 6.4 0.00 0.00 0.00 49 1017.2
20260510172102 18 351 11.3 12.9 0.00 0.00 0.00 50 1017.2
20260510171558 18 72 8.0 11.3 0.00 0.00 0.00 52 1017.0
20260510171056 17 325 3.2 3.2 0.00 0.00 0.00 49 1017.2
20260510170552 17 57 8.0 11.3 0.00 0.00 0.00 54 1017.1
20260510170049 17 2 9.7 11.3 0.00 0.00 0.00 49 1017.1
20260510165545 17 4 9.7 11.3 0.00 0.00 0.00 47 1017.2
20260510165041 17 330 6.4 9.7 0.00 0.00 0.00 46 1017.2
20260510164538 18 355 11.3 14.5 0.00 0.00 0.00 48 1017.3
20260510164035 18 75 3.2 4.8 0.00 0.00 0.00 50 1017.1
20260510163530 17 327 4.8 4.8 0.00 0.00 0.00 56 1017.0
20260510163026 17 28 6.4 11.3 0.00 0.00 0.00 51 1017.5
20260510162521 17 44 4.8 9.7 0.00 0.00 0.00 47 1017.2
20260510162013 17 61 6.4 9.7 0.00 0.00 0.00 49 1017.2
20260510161509 17 59 11.3 12.9 0.00 0.00 0.00 48 1017.1
20260510161005 18 58 4.8 6.4 0.00 0.00 0.00 53 1017.1
20260510160457 17 70 11.3 14.5 0.00 0.00 0.00 52 1017.1
20260510155955 17 48 9.7 11.3 0.00 0.00 0.00 53 1017.1
20260510155453 17 2 6.4 9.7 0.00 0.00 0.00 54 1017.0
20260510154949 17 358 6.4 6.4 0.00 0.00 0.00 54 1016.9
20260510154445 17 52 6.4 9.7 0.00 0.00 0.00 57 1017.1
20260510153943 17 43 6.4 11.3 0.00 0.00 0.00 52 1016.7
20260510153435 17 16 9.7 14.5 0.00 0.00 0.00 55 1016.7
20260510152931 16 60 4.8 4.8 0.00 0.00 0.00 58 1016.8
20260510152429 16 19 6.4 9.7 0.00 0.00 0.00 58 1016.9
20260510151925 16 53 1.6 4.8 0.00 0.00 0.00 59 1016.9
20260510151422 16 64 4.8 6.4 0.00 0.00 0.00 62 1016.5
20260510150913 16 34 9.7 12.9 0.00 0.00 0.00 61 1016.5
20260510150409 17 46 11.3 12.9 0.00 0.00 0.00 56 1016.4
20260510145904 17 58 4.8 6.4 0.00 0.00 0.00 62 1016.2
20260510145400 17 66 8.0 11.3 0.00 0.00 0.00 61 1016.1
20260510144857 17 53 9.7 12.9 0.00 0.00 0.00 61 1016.0
20260510144354 16 51 8.0 12.9 0.00 0.00 0.00 63 1015.7
20260510143849 17 83 3.2 4.8 0.00 0.00 0.00 69 1015.8
20260510143345 16 52 8.0 11.3 0.00 0.00 0.00 66 1015.9
20260510142843 16 41 6.4 9.7 0.00 0.00 0.00 68 1015.7
20260510142339 15 32 4.8 4.8 0.00 0.00 0.00 70 1015.5
20260510141836 15 52 3.2 4.8 0.00 0.00 0.00 71 1015.4
20260510141333 15 128 6.4 9.7 0.00 0.00 0.00 71 1015.3
20260510140830 13 49 4.8 6.4 0.00 0.00 0.00 74 1015.1
20260510140326 14 65 6.4 6.4 0.00 0.00 0.00 75 1015.4
20260510135819 14 114 8.0 12.9 0.00 0.00 0.00 76 1015.3
20260510135316 14 60 8.0 9.7 0.00 0.00 0.00 75 1015.4
20260510134814 14 56 6.4 11.3 0.00 0.00 0.00 73 1015.5
20260510134310 14 65 4.8 6.4 0.00 0.00 0.00 73 1015.4
20260510133806 13 59 6.4 9.7 0.00 0.00 0.00 75 1015.5
20260510133302 13 43 3.2 4.8 0.00 0.00 0.00 77 1015.7
20260510132758 13 35 3.2 3.2 0.00 0.00 0.00 79 1015.7
20260510132256 13 46 1.6 1.6 0.00 0.00 0.00 79 1015.4
20260510131753 13 52 0.0 1.6 0.00 0.00 0.00 79 1015.5
20260510131251 13 50 3.2 3.2 0.00 0.00 0.00 78 1015.2
20260510130747 13 61 1.6 3.2 0.00 0.00 0.00 79 1015.2
20260510130244 13 17 3.2 4.8 0.00 0.00 0.00 79 1015.3
20260510125740 13 40 4.8 4.8 0.00 0.00 0.00 79 1015.2
20260510125236 13 14 3.2 3.2 0.00 0.00 0.00 80 1015.0
20260510124733 13 27 3.2 4.8 0.00 0.00 0.00 79 1015.0
20260510124231 13 65 4.8 4.8 0.00 0.00 0.00 77 1014.6
20260510123726 14 18 4.8 6.4 0.00 0.00 0.00 76 1014.6
20260510123222 14 16 3.2 9.7 0.00 0.00 0.00 78 1014.6
20260510122718 13 26 3.2 4.8 0.00 0.00 0.00 79 1014.6
20260510122215 13 28 3.2 4.8 0.00 0.00 0.00 80 1014.6
20260510121711 13 45 4.8 4.8 0.00 0.00 0.00 80 1014.5
20260510121209 13 40 3.2 3.2 0.00 0.00 0.00 81 1014.7
20260510120706 13 45 4.8 4.8 0.00 0.00 0.00 83 1014.5
20260510120202 13 35 4.8 4.8 0.00 0.00 0.00 82 1014.6
20260510115657 13 343 1.6 1.6 0.00 0.00 0.00 84 1014.5
20260510115156 13 7 1.6 1.6 0.00 0.00 0.00 85 1014.3
20260510114646 13 329 0.0 0.0 0.00 0.00 0.00 86 1014.4
20260510114142 13 358 0.0 0.0 0.00 0.00 0.00 87 1014.2
20260510113637 13 354 1.6 1.6 0.00 0.00 0.00 87 1013.9
20260510113135 13 354 3.2 3.2 0.00 0.00 0.00 87 1013.8
20260510112631 13 341 6.4 6.4 0.00 0.00 0.00 88 1013.9
20260510112128 13 346 4.8 4.8 0.00 0.00 0.00 90 1013.6
20260510111624 13 334 6.4 6.4 0.00 0.00 0.00 91 1013.7
20260510111120 12 347 4.8 4.8 0.00 0.00 0.00 92 1013.7
20260510110616 12 339 4.8 4.8 0.00 0.00 0.00 93 1013.6
20260510110113 12 345 4.8 4.8 0.00 0.00 0.00 92 1013.5
20260510105609 12 342 6.4 6.4 0.00 0.00 0.00 93 1013.4
20260510105103 12 336 6.4 6.4 0.00 0.00 0.00 93 1013.2
20260510104601 12 328 3.2 3.2 0.00 0.00 0.00 94 1013.1
20260510104057 12 325 3.2 3.2 0.00 0.00 0.00 94 1013.0
20260510103554 12 313 1.6 1.6 0.00 0.00 0.00 94 1012.8
20260510103050 12 294 3.2 3.2 0.00 0.00 0.00 94 1012.9
20260510102545 12 309 3.2 3.2 0.00 0.00 0.00 94 1013.0
20260510102042 12 315 0.0 0.0 0.00 0.00 0.00 93 1012.6
20260510101540 12 314 0.0 0.0 0.00 0.00 0.00 93 1012.6
20260510101038 12 314 0.0 0.0 0.00 0.00 0.00 92 1012.3
20260510100534 12 314 3.2 3.2 0.00 0.00 0.00 92 1012.5
20260510100032 12 309 1.6 3.2 0.00 0.00 0.00 91 1012.4
20260510095527 13 326 3.2 3.2 0.00 0.00 0.00 91 1012.4
20260510095026 13 326 4.8 4.8 0.00 0.00 0.00 90 1012.4
20260510094521 13 334 3.2 3.2 0.00 0.00 0.00 90 1012.2
20260510094017 13 321 0.0 0.0 0.00 0.00 0.00 89 1011.8
20260510093513 13 314 0.0 0.0 0.00 0.00 0.00 89 1012.1
20260510093010 13 300 3.2 3.2 0.00 0.00 0.00 90 1012.2
20260510092507 13 272 1.6 1.6 0.00 0.00 0.00 91 1012.2
20260510092006 13 242 0.0 0.0 0.00 0.00 0.00 90 1012.0
20260510091504 13 242 1.6 3.2 0.00 0.00 0.00 91 1011.8
20260510090959 13 240 3.2 3.2 0.00 0.00 0.00 90 1011.7
20260510090457 13 233 3.2 4.8 0.00 0.00 0.00 90 1011.6
20260510085952 13 240 4.8 4.8 0.00 0.00 0.00 90 1011.4
20260510085447 13 232 1.6 1.6 0.00 0.00 0.00 88 1011.4
20260510084943 13 211 0.0 0.0 0.00 0.00 0.00 87 1011.3
20260510084440 13 250 0.0 0.0 0.00 0.00 0.00 87 1011.1
20260510083937 13 242 0.0 0.0 0.00 0.00 0.00 87 1011.2
20260510083434 13 63 0.0 0.0 0.00 0.00 0.00 87 1011.3
20260510082929 13 63 0.0 0.0 0.00 0.00 0.00 87 1011.1
20260510082427 13 64 0.0 1.6 0.00 0.00 0.00 87 1010.9
20260510081926 14 222 0.0 0.0 0.00 0.00 0.00 86 1011.0
20260510081422 14 230 1.6 1.6 0.00 0.00 0.00 86 1011.0
20260510080918 15 230 0.0 0.0 0.00 0.00 0.00 85 1010.9
20260510080417 15 229 1.6 1.6 0.00 0.00 0.00 84 1010.8
20260510075914 15 230 3.2 3.2 0.00 0.00 0.00 83 1010.6
20260510075412 15 230 3.2 3.2 0.00 0.00 0.00 82 1010.8
20260510074909 15 242 1.6 3.2 0.00 0.00 0.00 81 1010.8
20260510074406 15 261 4.8 4.8 0.00 0.00 0.00 82 1010.8
20260510073902 15 281 3.2 3.2 0.00 0.00 0.00 82 1010.7
20260510073358 15 288 4.8 4.8 0.00 0.00 0.00 82 1010.7
20260510072854 15 231 4.8 4.8 0.00 0.00 0.00 82 1010.6
20260510072351 15 239 4.8 4.8 0.00 0.00 0.00 82 1010.8
20260510071847 15 254 4.8 4.8 0.00 0.00 0.00 83 1010.9
20260510071343 15 236 1.6 1.6 0.00 0.00 0.00 83 1010.8
20260510070842 15 232 6.4 6.4 0.00 0.00 0.00 84 1010.8
20260510070338 15 226 3.2 4.8 0.00 0.00 0.00 84 1011.0
20260510065833 15 268 4.8 4.8 0.00 0.00 0.00 85 1011.1
20260510065330 15 243 3.2 3.2 0.00 0.00 0.00 85 1010.8
20260510064827 15 223 6.4 6.4 0.00 0.00 0.00 84 1010.9
20260510064325 16 230 4.8 6.4 0.00 0.00 0.00 84 1011.3
20260510063820 16 238 6.4 6.4 0.00 0.00 0.00 83 1011.1
20260510063311 16 243 4.8 4.8 0.00 0.00 0.00 82 1011.0
20260510062808 16 246 3.2 4.8 0.00 0.00 0.00 82 1011.2
20260510062306 16 272 6.4 6.4 0.00 0.00 0.00 82 1011.1
20260510061759 16 284 4.8 6.4 0.00 0.00 0.00 83 1011.4
20260510061257 15 288 6.4 6.4 0.00 0.00 0.00 83 1011.3
20260510060752 15 270 3.2 4.8 0.00 0.00 0.00 84 1010.9
20260510060250 16 254 6.4 6.4 0.00 0.00 0.00 82 1010.9
20260510055746 16 230 11.3 12.9 0.00 0.00 0.00 82 1010.9
20260510055245 16 249 9.7 12.9 0.00 0.00 0.00 81 1010.6
20260510054744 16 231 6.4 6.4 0.00 0.00 0.00 83 1010.9
20260510054241 16 201 9.7 11.3 0.00 0.00 0.00 82 1010.7
20260510053740 16 190 9.7 11.3 0.00 0.00 0.00 82 1010.7
20260510053237 16 214 9.7 11.3 0.00 0.00 0.00 82 1010.9
20260510052732 16 217 9.7 11.3 0.00 0.00 0.00 82 1010.6
20260510052228 16 229 9.7 11.3 0.00 0.00 0.00 82 1010.8
20260510051725 16 222 11.3 12.9 0.00 0.00 0.00 81 1010.8
20260510051221 16 199 11.3 12.9 0.00 0.00 0.00 81 1010.7
20260510050718 16 210 9.7 11.3 0.00 0.00 0.00 82 1010.5
20260510050216 16 217 9.7 12.9 0.00 0.00 0.00 83 1010.6
20260510045712 16 210 12.9 12.9 0.00 0.00 0.00 82 1010.7
20260510045209 16 221 9.7 11.3 0.00 0.00 0.00 81 1010.5
20260510044705 16 219 11.3 12.9 0.00 0.00 0.00 82 1010.4
20260510044203 16 223 12.9 14.5 0.00 0.00 0.00 80 1010.4
20260510043658 16 213 11.3 12.9 0.00 0.00 0.00 81 1010.5
20260510043155 16 215 12.9 14.5 0.00 0.00 0.00 81 1010.4
20260510042652 16 230 12.9 14.5 0.00 0.00 0.00 81 1010.4
20260510042148 16 233 11.3 12.9 0.00 0.00 0.00 81 1010.5
20260510041646 16 229 12.9 14.5 0.00 0.00 0.00 80 1010.6
20260510041143 16 214 14.5 14.5 0.00 0.00 0.00 79 1010.5
20260510040640 16 223 11.3 12.9 0.00 0.00 0.00 80 1010.3
20260510040136 16 228 14.5 16.1 0.00 0.00 0.00 78 1010.3
20260510035632 16 220 17.7 17.7 0.00 0.74 0.74 78 1010.2
20260510035127 16 234 14.5 17.7 0.00 0.74 0.74 78 1010.2
20260510034625 16 221 11.3 14.5 0.00 0.74 0.74 78 1010.2
20260510034121 16 232 14.5 16.1 0.00 0.74 0.74 77 1010.3
20260510033618 16 230 9.7 12.9 0.00 0.74 0.74 78 1010.3
20260510033116 17 228 14.5 16.1 0.00 0.74 0.74 76 1010.0
20260510032612 17 218 11.3 12.9 0.00 0.74 0.74 76 1010.0
20260510032107 16 203 11.3 11.3 0.00 0.74 0.74 77 1010.0
20260510031602 17 210 14.5 16.1 0.00 0.74 0.74 76 1010.3
20260510031059 17 217 12.9 14.5 0.00 0.74 0.74 75 1010.1
20260510030554 17 223 11.3 12.9 0.00 0.74 0.74 74 1010.3
20260510030051 17 215 14.5 16.1 0.00 0.74 0.74 74 1010.1
20260510025543 17 212 11.3 12.9 0.00 0.74 0.74 74 1009.9
20260510025040 17 244 9.7 11.3 0.00 0.74 0.74 73 1009.9
20260510024537 17 214 9.7 12.9 0.00 0.74 0.74 73 1010.1
20260510024033 17 208 14.5 14.5 0.00 0.74 0.74 71 1009.8
20260510023529 17 225 11.3 12.9 0.00 0.74 0.74 71 1009.8
20260510023026 17 205 11.3 12.9 0.00 0.74 0.74 71 1010.0
20260510022525 17 216 12.9 14.5 0.00 0.74 0.74 70 1009.9
20260510022020 17 223 11.3 12.9 0.00 0.74 0.74 70 1009.6
20260510021517 17 196 9.7 11.3 0.00 0.74 0.74 71 1009.6
20260510021014 17 196 11.3 12.9 0.00 0.74 0.74 70 1009.4
20260510020508 17 212 9.7 11.3 0.00 0.74 0.74 71 1009.5
20260510020004 17 209 9.7 11.3 0.00 0.74 0.74 70 1009.6
20260510015454 17 206 8.0 9.7 0.00 0.74 0.74 69 1009.5
20260510014949 17 211 8.0 11.3 0.00 0.74 0.74 68 1009.5
20260510014447 17 203 6.4 6.4 0.00 0.74 0.74 69 1009.3
20260510013944 17 208 4.8 4.8 0.00 0.74 0.74 70 1009.3
20260510013433 17 225 6.4 6.4 0.00 0.74 0.74 69 1009.3
20260510012929 17 205 6.4 6.4 0.00 0.74 0.74 70 1009.3
20260510012424 17 209 6.4 6.4 0.00 0.74 0.74 68 1009.0
20260510011919 17 226 6.4 6.4 0.00 0.74 0.74 68 1009.0
20260510011414 17 224 4.8 4.8 0.00 0.74 0.74 69 1008.8
20260510010910 17 225 3.2 4.8 0.00 0.74 0.74 69 1008.8
20260510010408 17 210 8.0 9.7 0.00 0.74 0.74 68 1008.6
20260510005904 17 221 6.4 6.4 0.00 0.74 0.74 68 1008.9
20260510005401 17 218 4.8 4.8 0.00 0.74 0.74 69 1008.7
20260510004858 17 226 6.4 6.4 0.00 0.74 0.74 69 1008.7
20260510004355 18 223 6.4 6.4 0.00 0.74 0.74 68 1008.6
20260510003853 18 226 8.0 9.7 0.00 0.74 0.74 67 1008.6
20260510003350 18 232 8.0 9.7 0.00 0.74 0.74 66 1008.6
20260510002848 18 230 6.4 6.4 0.00 0.74 0.74 67 1008.8
20260510002346 18 231 6.4 6.4 0.00 0.74 0.74 66 1008.3
20260510001843 19 235 4.8 4.8 0.00 0.74 0.74 64 1008.4
20260510001341 20 236 6.4 6.4 0.00 0.74 0.74 62 1008.2
20260510000837 20 228 11.3 12.9 0.00 0.74 0.74 59 1008.3
20260510000334 20 228 9.7 11.3 0.00 0.74 0.74 58 1008.0
20260509235831 20 230 9.7 11.3 0.00 0.74 0.74 59 1008.0
20260509235327 20 228 8.0 9.7 0.00 0.74 0.74 58 1008.2
20260509234823 20 249 12.9 14.5 0.00 0.74 0.74 57 1007.9
20260509234320 21 240 14.5 16.1 0.00 0.74 0.74 55 1008.0
20260509233818 21 232 11.3 16.1 0.00 0.74 0.74 56 1007.9
20260509233316 21 223 12.9 14.5 0.00 0.74 0.74 56 1008.0
20260509232811 21 221 17.7 20.9 0.00 0.74 0.74 56 1007.8
20260509232309 21 226 9.7 11.3 0.00 0.74 0.74 56 1007.6
20260509231805 21 233 12.9 14.5 0.00 0.74 0.74 56 1007.6
20260509231302 21 229 12.9 14.5 0.00 0.74 0.74 54 1007.5